Location: Cisewo
(53.3833°N, 14.9000°E)
Time: 11:15:10
(UTC+00:00)

Aureole 1 Rocket - Pass Details

Date: 18 April 2021
Orbit: 379 x 1372 km, 73.9° (Epoch: 14 May)

Event Time Altitude Azimuth Distance (km) Brightness Sun altitude
Exits shadow 22:38:16 50° 243° (WSW) 1,023 3.9 -25.3°
Maximum altitude 22:39:30 65° 298° (WNW) 846 3.7 -25.3°
Drops below altitude 10° 22:44:03 10° 21° (NNE) 2,029 6.5 -25.4°
Sets 22:46:02 0° 25° (NNE) 2,813 7.4 -25.4°
